User: anonymous   Login
Location: Starry Hill Observatory
(46.8582°N, 122.3590°W)
Time: 07:51:41
(UTC-07:00)
Language:

Cosmos 1300 Rocket - Orbit

View from above orbital plane
View from above orbital plane
View from above satellite
View from above satellite

Ground track
Ground track

The orbit data is extracted from the following two-line orbital elements,

1 12786U 81082B   16177.87145708 +.00000097 +00000-0 +86460-5 0  9990
2 12786 082.4895 303.5064 0017404 356.2348 003.8734 14.84623938860849
Epoch (UTC): 25 June 2016 20:54:53
Eccentricity: 0.0017404
inclination: 82.4895°
perigee height: 602 km
apogee height: 627 km
right ascension of ascending node: 303.5064°
argument of perigee: 356.2348°
revolutions per day: 14.84623938
mean anomaly at epoch: 3.8734°
orbit number at epoch: 86084

The dashed part of the orbit path shows where the satellite is in the earth's shadow,  

DLR